Location: Umburanas
(4.5000°S, 37.9667°W)
Time: 03:51:23
(UTC+00:00)

FUSE - Pass Details

Date: 19 November 2019
Orbit: 742 x 756 km, 25.0° (Epoch: 12 December)

Event Time Altitude Azimuth Distance (km) Brightness Sun altitude
Rises 21:17:27 0° 235° (SW) 3,172 8.9 -12.6°
Reaches altitude 10° 21:20:00 10° 230° (SW) 2,246 7.7 -13.2°
Maximum altitude 21:25:08 49° 155° (SSE) 952 4.4 -14.3°
Enters shadow 21:28:23 21° 90° (E) 1,605 5.1 -15.1°
